Orbital Elements at Epoch 2459200.5 (2020-Dec-17.0) TDB
Reference: JPL 25 (heliocentric ecliptic J2000)
Element | Value | Uncertainty (1-sigma) | Units |
e | .2391191031635015 | 3.6516e-08 | |
a | 2.741949044044841 | 1.3761e-08 | au |
q | 2.086296647712818 | 9.9317e-08 | au |
i | 7.701443259227642 | 4.7837e-06 | deg |
node | 217.7258255763264 | 3.0276e-05 | deg |
peri | 250.7665440246364 | 3.1834e-05 | deg |
M | 230.1036930630512 | 1.2633e-05 | deg |
tp | 2459798.886517217448 (2022-Aug-07.38651722) | 6.0636e-05 | TDB |
period | 1658.393154339985 4.54 | 1.2484e-05 3.418e-08 | d yr |
n | .2170775965023049 | 1.6342e-09 | deg/d |
Q | 3.397601440376864 | 1.7052e-08 | au |
|
| | Orbit Determination Parameters
Additional Information
|